CZ-6A DEB, 54965

Orbit data source: Space-Track

CZ-6A DEB, 54965 is space debris in SSO originally from a launch on Fri, 11 Nov 2022 UTC launched from the Taiyaun Space Center, China (TSC). Debris objects in space refer to the collection of defunct objects orbiting the Earth. Examples of debris include non-operational satellites, rocket bodies, and fragments generated from explosions, collisions, or faulty payload assembly.

Loading next visibility...
Identifier
54965, 2022-151TE
Orbit
SSO
Country
Flag of CNCN / PRC
Related business
Manufacturer
SAST
Mission
Spacecraft
Bus & Motor
Unknown
Mass
Unknown
Launch date (UTC)
2022-11-11 (4 years ago)
Launch vehicle
Unknown
Launch site
Taiyaun Space Center, China (TSC)
Object type
Payload
Rocket body
Debris
Shape & HBR
Unknown shape, 0.1 m
Radar Cross Section
Medium (>0.1 m² and <1 m²)

Expand to show TLE details & history
Last TLE update: 5 hours ago

TLE from 5 hours ago
0 CZ-6A DEB
1 54965U 22151TE  26263.90502475  .00000081  00000-0  72531-4 0  9992
2 54965  98.8404 244.5065 0087288 122.9231 238.0371 14.06086187197612
Epoch: 2026-09-20T21:43Z
TLE epoch observation values (Epoch: 2026-09-20T21:43:14.138Z)
Latitude
-0.00004°
Longitude
-81.09491°
Altitude
909.594 km
Speed
7.38 km/s
True Right ascension
16h 18m 01s
True Declination
0° 00' 00"
Sunlit
Object was in daylight at epoch
Visualization orbit readout
Latitude
Unknown
Longitude
Unknown
Altitude
Unknown
Speed
Unknown
Apparent Right ascension
Unknown
Apparent Declination
Unknown
Sunlit
N/A
Visualization observer readout
Local Sidereal Time
20:09:07
Azimuth
Unknown
Elevation
Unknown
Doppler factor
Unknown
Orbital elements
Apogee altitude
933.246 km
Perigee altitude
806.712 km
Semi-major axis
7,248.116 km
Eccentricity
0.00873
Inclination
98.8404°
RAAN
244.5065°
Arg. of periapsis
122.9231°
True anomaly
237.1934°
Mean anomaly
238.0371°
Eccentric anomaly
237.61476°
Mean motion
3.51727 °/min
Orbital period
102.35 mins
BSTAR
0.000072531
Loading maneuver chart data...
Computing Atmospheric mass density...

Documentation

Showing up to 5 results
|